Regional Weather Roundup
Issued by NWS Sioux Falls, SD

Home | Current Version | Previous Version | Text Only | Print | Product List | Glossary On
Versions: 1 2 3 4 5 6 7 8 9 10 11 12 13 14 15 16 17 18 19 20 21 22 23 24 25 26 27 28 29 30 31 32 33 34 35 36 37 38 39 40 41 42 43 44 45 46 47 48 49 50
000
ASUS43 KFSD 211502
RWRFSD

WEATHER ROUNDUP FOR SE SOUTH DAKOTA/SW MINNESOTA/NW IOWA
NATIONAL WEATHER SERVICE SIOUX FALLS SD
900 AM CST TUE FEB 21 2017

NOTE: "FAIR" INDICATES FEW OR NO CLOUDS BELOW 12,000 FEET WITH NO
SIGNIFICANT WEATHER AND OR OBSTRUCTIONS TO VISIBILITY.


SDZ038>040-050-052>070-211600-
SOUTHEAST SOUTH DAKOTA

CITY           SKY/WX    TMP DP  RH WIND       PRES   REMARKS
BROOKINGS      SUNNY     42  34  73 S13       29.79S
CHAMBERLAIN    SUNNY     50  34  53 CALM      29.77S
HURON          SUNNY     42  32  67 S6        29.76S
MADISON        FAIR      41  37  87 SW14      29.80S
MITCHELL       SUNNY     47  31  53 SW13      29.79F
SIOUX FALLS    MOSUNNY   47  36  65 SW16G25   29.83S
WINNER         FAIR      52  30  43 S8        29.78S
YANKTON        SUNNY     46  32  57 S17       29.84F
$$

MNZ071-072-080-081-089-090-097-098-211600-
SOUTHWEST MINNESOTA

CITY           SKY/WX    TMP DP  RH WIND       PRES   REMARKS
FAIRMONT       SUNNY     39  37  92 S8        29.91S
JACKSON        SUNNY     41  36  81 S13       29.89S
LUVERNE        SUNNY     37  36  93 S14       29.85F
MARSHALL       SUNNY     48  37  65 SW23      29.78S
MONTEVIDEO     SUNNY     43  37  81 SW12G17   29.78F
PIPESTONE      SUNNY     45  34  65 SW17      29.81F
REDWOOD FALLS  SUNNY     41  35  79 S10       29.81F
TRACY          SUNNY     49  38  66 SW22G29   29.81F
WINDOM         SUNNY     43  37  81 S10       29.86S
WORTHINGTON    SUNNY     46  36  68 S22       29.86F
$$

IAZ001>003-012>014-020>022-031-032-NEZ013-014-SDZ071-211600-
NORTHWEST IOWA

CITY           SKY/WX    TMP DP  RH WIND       PRES   REMARKS
CHEROKEE       SUNNY     38  38 100 S5        29.94S
DENISON        SUNNY     37  37 100 CALM      29.95S FOG
ESTHERVILLE    SUNNY     44  39  82 S15       29.90R
LE MARS        SUNNY     39  37  93 S10       29.93S
SHELDON        SUNNY     41  41 100 S14       29.88F
SIOUX CITY     SUNNY     39  37  92 SE8       29.94S
SPENCER        SUNNY     41  38  89 S10       29.91S
STORM LAKE     SUNNY     41  39  93 SW9       29.94S
$$

ABBREVIATIONS USED IN REMARKS
   TC - TEMPERATURE IN CELSIUS
  WCI - WIND CHILL INDEX
   HX - HEAT INDEX
  VSB - VISIBILITY





USA.gov is the U.S. government's official web portal to all federal, state and local government web resources and services.